Volver al catálogo

CZ-4 DEB

ActivoSSO
NORAD 26119·DEBRIS·🇨🇳 China

Lanzado Oct 14, 1999 desde Taiyuan Satellite Launch Center

Loading…

Próximos Pases (próximas 24 horas)

TLE

ActualizadoSource: Space-Track

Época: Sep 14, 2026, 11:51 UTC

1 26119U 99057F   26257.49401471  .00000186  00000-0  18179-3 0  9995
2 26119  99.3746 146.5964 0486541 286.1375 255.9208 13.47579578297807

Sigue CZ-4 DEB en tiempo real con AllMySat

Download on the App Store